Weather reports worldwide

Advertisment
Milano/Linate, Italy (16080): temperature & dewpoint: 17.04.2018 01:00:00 - 23.04.2018 01:00:00 (CEST)Milano/Linate, Italy (16080): wind speed: 17.04.2018 01:00:00 - 23.04.2018 01:00:00 (CEST)Milano/Linate, Italy (16080): wind direction: 17.04.2018 01:00:00 - 23.04.2018 01:00:00 (CEST)Milano/Linate, Italy (16080): reduced air pressure: 17.04.2018 01:00:00 - 23.04.2018 01:00:00 (CEST)Milano/Linate, Italy (16080): visibility: 17.04.2018 01:00:00 - 23.04.2018 01:00:00 (CEST)
Date & Time tt [°C] td [°C] ff [km/h] ff [kn] dd ppp [hPa] vv [km]
23.04.2018 01:00:00 17,0 12,0 4 2 - - 10
23.04.2018 00:00:00 18,0 11,0 4 2 NNE - 10
22.04.2018 23:00:00 18,1 11,0 0 0 N 1016,9 10
22.04.2018 22:00:00 20,0 11,0 0 0 N - 10
22.04.2018 21:00:00 21,0 10,0 5 3 SSE - 10
22.04.2018 20:00:00 23,9 9,7 9 5 SSE 1015,2 10
22.04.2018 19:00:00 25,0 10,0 8 4 S - 10
22.04.2018 18:00:00 26,0 9,0 5 3 S - 10
22.04.2018 17:00:00 26,1 9,1 8 4 SSE 1015,1 10
22.04.2018 16:00:00 27,0 9,0 4 2 - - 10
22.04.2018 15:00:00 25,0 8,0 8 4 S - 10
22.04.2018 14:00:00 24,7 9,0 5 3 S 1017,0 10
22.04.2018 13:00:00 23,0 8,0 9 5 SSW - 10
22.04.2018 12:00:00 22,0 10,0 9 5 - - 10
22.04.2018 11:00:00 21,1 11,2 9 5 SE 1018,7 10
22.04.2018 10:00:00 20,0 9,0 11 6 ESE - 10
22.04.2018 09:00:00 18,0 8,0 11 6 ESE - 10
22.04.2018 08:00:00 17,5 9,6 4 2 ESE 1018,5 10
22.04.2018 07:00:00 14,0 10,0 0 0 N - 10
22.04.2018 06:00:00 14,0 10,0 4 2 - - 10
22.04.2018 05:00:00 15,9 9,2 5 3 ENE 1018,0 10
22.04.2018 04:00:00 17,0 10,0 11 6 ENE - 10
22.04.2018 03:00:00 18,0 11,0 13 7 E - 10
22.04.2018 02:00:00 17,8 10,8 9 5 ENE 1018,2 10
22.04.2018 01:00:00 18,0 11,0 5 3 NE - 10
22.04.2018 00:00:00 19,0 11,0 2 1 - - 10
21.04.2018 23:00:00 18,8 11,0 2 1 - 1017,8 10
21.04.2018 22:00:00 21,0 12,0 5 3 E - 10
21.04.2018 21:00:00 23,0 10,0 5 3 ESE - 10
21.04.2018 20:00:00 24,7 8,4 9 5 SE 1016,5 10
21.04.2018 19:00:00 26,0 11,0 8 4 S - 10
21.04.2018 18:00:00 26,0 9,0 9 5 S - 10
21.04.2018 17:00:00 27,0 9,7 9 5 S 1016,9 10
21.04.2018 16:00:00 27,0 10,0 8 4 - - 10
21.04.2018 15:00:00 26,0 9,0 9 5 S - 10
21.04.2018 14:00:00 26,0 9,9 4 2 S 1019,2 10
21.04.2018 13:00:00 25,0 11,0 4 2 - - 10
21.04.2018 12:00:00 25,0 11,0 4 2 - - 10
21.04.2018 11:00:00 23,6 9,8 4 2 - 1021,1 10
21.04.2018 10:00:00 22,0 10,0 4 2 - - 10
21.04.2018 09:00:00 19,0 12,0 2 1 - - 10
21.04.2018 08:00:00 17,0 11,9 2 1 SSW 1021,3 10
21.04.2018 07:00:00 13,0 12,0 0 0 N - 10
21.04.2018 06:00:00 13,0 11,0 5 3 NNE - 10
21.04.2018 05:00:00 13,6 10,4 4 2 N 1020,8 10
21.04.2018 04:00:00 - - - - - - -
21.04.2018 03:00:00 16,0 11,0 9 5 N - 10
21.04.2018 02:00:00 15,5 11,5 8 4 NNE 1021,4 10
21.04.2018 01:00:00 17,0 11,0 9 5 N - 10
21.04.2018 00:00:00 18,0 11,0 4 2 - - 10
20.04.2018 23:00:00 18,2 10,3 4 2 - 1021,5 10
20.04.2018 22:00:00 20,0 11,0 4 2 - - 10
20.04.2018 21:00:00 21,0 9,0 5 3 S - 10
20.04.2018 20:00:00 22,4 8,9 8 4 S 1020,7 10
20.04.2018 19:00:00 25,0 9,0 8 4 S - 10
20.04.2018 18:00:00 27,0 9,0 8 4 SSW - 10
20.04.2018 17:00:00 27,1 8,8 4 2 SW 1021,5 10
20.04.2018 16:00:00 27,0 8,0 5 3 - - 10
20.04.2018 15:00:00 26,0 8,0 5 3 S - 10
20.04.2018 14:00:00 25,5 8,0 5 3 SSE 1024,0 10
20.04.2018 13:00:00 24,0 12,0 5 3 S - 10
20.04.2018 12:00:00 23,0 11,0 4 2 - - 10
20.04.2018 11:00:00 22,1 11,6 5 3 ESE 1025,6 10
20.04.2018 10:00:00 21,0 11,0 4 2 - - 10
20.04.2018 09:00:00 20,0 12,0 0 0 N - 10
20.04.2018 08:00:00 16,1 12,4 2 1 NW 1025,4 10
20.04.2018 07:00:00 12,0 11,0 2 1 S - 10
20.04.2018 06:00:00 13,0 10,0 0 0 N - 10
20.04.2018 05:00:00 12,7 10,6 2 1 ESE 1024,9 10
20.04.2018 04:00:00 14,0 11,0 4 2 - - 10
20.04.2018 03:00:00 14,0 10,0 11 6 N - 10
20.04.2018 02:00:00 14,7 10,4 9 5 NNW 1025,8 10
20.04.2018 01:00:00 17,0 10,0 9 5 N - 10
20.04.2018 00:00:00 17,0 9,0 11 6 NNW - 10
19.04.2018 23:00:00 17,2 9,4 4 2 N 1026,5 10
19.04.2018 22:00:00 19,0 8,0 0 0 N - 10
19.04.2018 21:00:00 20,0 9,0 2 1 - - 10
19.04.2018 20:00:00 21,2 9,4 8 4 SSE 1025,7 10
19.04.2018 19:00:00 23,0 9,0 9 5 SE - 10
19.04.2018 18:00:00 24,0 10,0 8 4 SSE - 10
19.04.2018 17:00:00 24,0 9,2 5 3 - 1025,9 10
19.04.2018 16:00:00 24,0 8,0 5 3 - - 10
19.04.2018 15:00:00 24,0 9,0 2 1 - - 10
19.04.2018 14:00:00 23,0 8,5 4 2 - 1027,7 10
19.04.2018 13:00:00 23,0 9,0 11 6 SE - 10
19.04.2018 12:00:00 22,0 9,0 11 6 SE - 10
19.04.2018 11:00:00 20,6 8,6 13 7 ESE 1029,4 10
19.04.2018 10:00:00 19,0 11,0 8 4 E - 10
19.04.2018 09:00:00 17,0 10,0 5 3 ESE - 10
19.04.2018 08:00:00 16,0 10,9 2 1 ENE 1029,3 10
19.04.2018 07:00:00 13,0 10,0 4 2 NNE - 10
19.04.2018 06:00:00 12,0 11,0 2 1 - - 8
19.04.2018 05:00:00 12,8 11,4 2 1 N 1029,0 10
19.04.2018 04:00:00 - - - - - - -
19.04.2018 03:00:00 14,0 11,0 5 3 - - 10
19.04.2018 02:00:00 13,8 10,6 8 4 N 1029,0 10
19.04.2018 01:00:00 - - - - - - -
19.04.2018 00:00:00 16,0 11,0 5 3 - - 10
18.04.2018 23:00:00 16,7 10,9 0 0 N 1028,7 10
18.04.2018 22:00:00 18,0 11,0 2 1 - - 10
18.04.2018 21:00:00 19,0 10,0 8 4 S - 10
18.04.2018 20:00:00 20,3 10,2 9 5 S 1027,2 10
18.04.2018 19:00:00 23,0 10,0 9 5 S - 10
18.04.2018 18:00:00 24,0 7,0 13 7 SSE - 10
18.04.2018 17:00:00 24,2 7,4 9 5 S 1026,7 10
18.04.2018 16:00:00 25,0 11,0 8 4 S - 10
18.04.2018 15:00:00 24,0 11,0 5 3 - - 10
18.04.2018 14:00:00 23,2 11,6 8 4 E 1028,0 10
18.04.2018 13:00:00 23,0 12,0 5 3 S - 10
18.04.2018 12:00:00 22,0 11,0 8 4 SSE - 10
18.04.2018 11:00:00 20,3 12,5 9 5 SE 1028,7 10
18.04.2018 10:00:00 19,0 12,0 4 2 - - 10
18.04.2018 09:00:00 17,0 11,0 5 3 ENE - 10
18.04.2018 08:00:00 15,2 11,7 5 3 N 1028,0 10
18.04.2018 07:00:00 14,0 11,0 4 2 N - 10
18.04.2018 06:00:00 14,0 11,0 8 4 N - 10
18.04.2018 05:00:00 14,2 11,3 5 3 N 1026,8 10
18.04.2018 04:00:00 - - - - - - -
18.04.2018 03:00:00 16,0 12,0 15 8 N - 10
18.04.2018 02:00:00 16,0 12,0 11 6 N 1026,5 10
18.04.2018 01:00:00 17,0 12,0 15 8 N - 10
18.04.2018 00:00:00 17,0 12,0 8 4 ENE - 10
17.04.2018 23:00:00 17,0 12,8 5 3 ENE 1025,0 10
17.04.2018 22:00:00 - - - - - - -
17.04.2018 21:00:00 20,0 12,0 8 4 SE - 10
17.04.2018 20:00:00 21,1 11,9 11 6 SE 1022,1 10
17.04.2018 19:00:00 23,0 12,0 13 7 SE - 10
17.04.2018 18:00:00 23,0 10,0 8 4 SSE - 10
17.04.2018 17:00:00 23,6 11,5 5 3 - 1020,9 10
17.04.2018 16:00:00 23,0 10,0 9 5 SE - 10
17.04.2018 15:00:00 23,0 11,0 8 4 SSE - 10
17.04.2018 14:00:00 - - - - - - -
17.04.2018 13:00:00 22,0 13,0 11 6 ESE - 10
17.04.2018 12:00:00 21,0 13,0 11 6 ESE - 10
17.04.2018 11:00:00 20,2 13,2 9 5 ESE 1021,7 10
17.04.2018 10:00:00 19,0 12,0 9 5 ESE - 10
17.04.2018 09:00:00 17,0 11,0 4 2 - - 10
17.04.2018 08:00:00 15,1 10,4 4 2 - 1020,0 10
17.04.2018 07:00:00 12,0 10,0 5 3 NNE - 10
17.04.2018 06:00:00 13,0 11,0 4 2 NNE - 10
17.04.2018 05:00:00 12,8 10,5 0 0 N 1017,8 10
17.04.2018 04:00:00 14,0 11,0 8 4 N - 10
17.04.2018 03:00:00 14,0 11,0 5 3 N - 10
17.04.2018 02:00:00 13,9 10,8 5 3 NNE 1016,3 10
17.04.2018 01:00:00 15,0 11,0 11 6 E - 10

tt = temperature
td = dewpoint
ff = wind speed
dd = wind direction
ppp = reduced air pressure
vv = visibility

Next stations